Weather in Kolodeznoye

Russia / Republic of Crimea     45°13′41″N   34°20′03″E
temp.,
°C
wind,
m/s
gust,
m/s
humid.,
%
clouds,
%
prec.,
mm/h
press.,
hPa
HPBL,
m
26 february, fri
fri2600:00+3wsw499297 0.0 1031245
03:00+4sw599598 0.1 1030231
06:00+5sw599599 0.1 1029254
09:00+6sw599399 0.2 1029267
12:00+10wsw7107756 0.0 1028502
15:00+12wsw7106828 0.0 1026732
18:00+9wsw610780 0.0 1024412
21:00+7sw712840 0.0 1024318
27 february, sat
sat2700:00+7sw714840 0.0 1023344
03:00+6sw815880 0.0 1021372
06:00+6sw714890 0.0 1020363
09:00+7wsw713860 0.0 1019480
12:00+11wsw8117516 0.0 1019583
15:00+12wsw797310 0.0 1018649
18:00+9wsw578329 0.0 1017409
21:00+8nnw248764 0.0 1018390
28 february, sun
sun2800:00+6nnw5890100 0.9 1018509
03:00+5nnw3678100 2.1 1019801
06:00+4nw2576100 0.1 1019453
09:00+4nnw5684100 0.3 1020573
12:00+4nw4680100 0.3 1021679
15:00+6nw6666100 0.6 10221028
18:00+4nw467295 0.2 1022925
21:00+3nw258197 0.4 1024727
1 march, mon
mon100:00+2nw3490100 0.1 1024293
03:00+2w2391100 0.3 1025198
06:00+1w129099 0.2 102549
09:00+1n2393100 0.3 1026245
12:00+4n236399 0.1 1027973
15:00+4n336199 0.1 1028961
18:00+4nne446299 0.1 1028959
21:00+3ne257591 0.1 1031444
2 march, tue
tue200:00+1nne247883 0.1 1032165
03:00+1n357585 0.1 1032170
06:00−1nnw238553 0.0 103382
09:00+1nw227542 0.0 1033261
12:00+4wnw345758 0.0 10341034
15:00+6wnw454861 0.0 10321109
18:00+4w586521 0.0 1030813
21:00+2wsw6107946 0.0 1030375